Simultaneous Nadir Overpasses (SNOs) Predictions

Prediction of SNOs between AQUA and NPP Satellite Orbit:

Table of predicted SNOs for the next 14.0 days since TLE Epoch: 4/17/2013
Index Date (AQUA) Time (AQUA) Lat,Lon (AQUA) SZA (AQUA ) Date (NPP) Time (NPP) Lat,Lon (NPP) SZA (NPP ) Distance(km) Time Diff (sec)
1 04/19/2013 14:55:29 -76.53, 16.98 94.63 04/19/2013 14:54:41 -76.54, 17.04 94.60 1.83 48
2 04/19/2013 15:44:41 77.17,-173.06 84.60 04/19/2013 15:45:11 77.17,-173.09 84.58 0.79 30
3 04/22/2013 07:11:57 -76.58, 133.04 95.61 04/22/2013 07:11:37 -76.58, 132.96 95.57 2.29 20
4 04/22/2013 08:01:02 77.54, -55.70 83.23 04/22/2013 08:01:59 77.55, -55.63 83.17 1.68 57
5 04/24/2013 22:39:09 76.05, 79.54 84.15 04/24/2013 22:38:00 76.04, 79.50 84.21 1.02 69
6 04/24/2013 23:28:20 -76.84,-110.16 96.81 04/24/2013 23:28:28 -76.83,-110.27 96.79 3.01 8
7 04/27/2013 14:55:25 76.57,-162.87 82.67 04/27/2013 14:54:44 76.58,-162.81 82.69 1.66 41
8 04/27/2013 15:44:38 -77.26, 7.28 98.17 04/27/2013 15:45:14 -77.26, 7.27 98.20 0.27 36
9 04/30/2013 07:11:46 76.86, -45.95 81.49 04/30/2013 07:11:34 76.87, -45.89 81.48 1.75 12




NCC Satellite Simultaneous Nadir Overpasses (SNOs) Prediction Service
